Wind_Speed
59 61 61 55 54 60 69 70 71 62 65 66 70 69 64 78 86 72 65 71 72 75 80 78 83 75 74 73 70 72 66 70 79 82 76 71 64 60 59 64 62 58 54 40
43 44 52 54 54 54 56 71 72 70 68 70 70 62 58 93 99 73 69 64 75 78 78 77 73 66 60 69 69 62 62 69 66 65 68 67 69 67 67 66 61 57 54 45
44 45 46 50 56 59 60 62 71 76 75 74 69 63 53 70 94 88 66 70 68 70 72 72 70 64 58 61 63 62 53 52 60 60 58 58 58 58 59 57 59 56 48 42
42 45 44 50 51 58 62 68 68 77 77 78 72 68 54 60 79 106 74 75 59 62 64 68 66 63 61 60 61 59 54 53 53 58 57 57 52 50 52 55 53 54 41 40
42 47 53 53 53 53 66 70 74 69 77 72 68 64 65 55 68 82 95 77 60 62 64 62 62 63 60 56 57 60 63 57 52 53 53 51 52 47 46 48 49 52 51 40
41 50 52 58 62 61 71 71 68 67 70 76 72 68 59 51 56 80 99 74 63 64 65 67 59 57 60 56 53 58 56 48 50 53 50 50 48 44 42 46 46 47 48 35
30 33 31 36 66 64 75 64 66 66 67 78 70 60 55 52 48 55 80 97 93 70 57 59 59 54 62 58 55 53 53 49 47 47 51 54 47 45 33 34 39 44 46 43
20 22 18 32 47 66 71 67 66 68 61 73 61 54 55 51 42 53 71 87 95 66 54 50 51 54 45 57 56 53 52 49 54 52 51 49 46 46 41 39 34 35 43 44
18 26 15 24 44 53 56 62 56 56 61 69 58 55 51 48 42 48 64 73 78 91 65 63 64 63 64 55 50 50 58 52 57 59 54 53 49 52 47 45 37 38 39 43
7 13 21 19 41 45 52 55 48 47 59 58 50 50 49 47 43 48 57 57 60 85 84 62 62 65 65 63 63 63 63 59 57 55 58 56 54 55 54 48 42 39 37 37
4 8 11 24 30 34 34 38 43 47 41 38 43 50 48 49 51 55 61 56 65 71 84 68 55 70 73 69 69 64 60 49 53 53 53 52 57 57 54 48 47 48 46 46
8 13 21 23 24 31 34 36 41 33 41 48 45 42 40 38 47 55 53 60 68 71 54 69 44 50 56 63 64 65 64 68 65 60 55 56 57 58 59 57 57 56 55 54
11 17 19 23 31 33 34 32 31 28 30 36 38 39 38 41 43 56 69 65 60 72 82 78 55 48 51 53 61 73 71 69 68 61 64 61 60 61 60 59 60 58 57 56
17 21 18 20 25 25 25 22 21 22 21 35 41 44 37 34 41 41 69 57 74 71 65 73 74 56 50 55 53 57 59 61 61 62 60 59 60 59 59 58 59 59 59 55
22 18 25 22 22 26 26 25 21 16 17 28 39 28 29 44 43 45 62 57 51 56 62 70 76 64 49 48 47 43 41 39 45 44 44 48 49 51 53 53 53 53 53 54
28 23 28 25 28 25 28 21 20 17 9 7 15 32 34 45 35 45 55 66 60 65 60 71 63 59 55 58 52 41 39 43 40 38 35 36 39 40 35 33 34 37 39 39
25 28 30 29 29 25 25 21 16 18 26 23 14 22 46 40 33 37 40 42 66 60 62 59 62 62 59 59 59 55 53 50 47 46 44 39 38 39 38 38 40 42 43 43
16 25 31 27 24 39 29 38 29 30 23 20 21 17 31 45 47 37 31 38 49 63 57 56 57 61 68 65 57 52 52 55 56 54 53 52 53 53 50 48 49 49 45 44
11 11 20 26 34 40 31 30 30 29 29 26 27 22 23 37 44 47 32 41 39 48 52 53 52 60 62 58 57 57 59 56 52 56 59 58 54 47 47 41 41 43 46 49
16 25 24 21 19 26 21 27 21 25 28 26 27 26 23 26 37 48 41 33 43 43 42 48 52 51 49 45 46 49 49 48 47 46 45 41 39 39 40 39 42 46 44 43
25 21 26 27 27 29 29 29 29 24 24 25 30 27 27 28 29 47 48 38 41 44 40 40 44 43 43 40 32 35 36 36 37 38 39 42 43 42 42 43 39 39 38 39
26 29 27 23 24 27 28 26 27 22 22 20 22 24 25 22 29 27 29 31 34 34 41 39 37 34 33 34 37 36 32 32 37 39 36 33 32 33 31 30 35 40 42 43
26 27 27 25 23 27 30 29 30 27 22 20 24 24 24 22 24 22 18 12 22 32 34 29 35 36 38 40 39 35 32 32 38 37 36 36 32 32 35 37 41 44 47 47
26 25 28 25 26 23 28 32 29 28 27 26 24 25 28 23 22 23 19 14 18 22 29 32 34 41 36 33 30 30 32 34 33 36 37 36 36 38 43 46 44 44 45 45
28 26 26 27 25 23 26 28 28 27 25 18 20 18 25 21 22 27 17 12 14 23 28 30 36 41 38 33 33 34 36 32 35 33 34 36 37 39 41 38 39 41 42 42
22 23 27 26 26 26 25 25 26 26 19 19 16 20 19 22 22 17 15 11 11 15 25 31 36 41 46 39 33 31 35 40 38 37 35 31 31 31 33 35 36 38 39 41
16 16 14 12 12 13 12 14 18 21 16 17 21 22 22 22 22 20 17 15 15 13 11 18 22 23 22 22 22 28 26 26 26 27 28 29 30 32 34 36 37 39 40 39
Wind_Direction
266 261 260 251 243 239 236 235 236 235 231 232 236 244 228 225 215 212 217 217 221 222 227 230 233 235 241 240 244 242 244 246 248 251 250 249 252 250 251 255 257 262 263 256
269 265 245 240 242 240 238 236 231 229 227 229 231 241 237 232 223 212 212 218 216 219 224 230 231 237 239 236 240 238 238 244 245 248 249 244 239 242 246 252 259 254 255 259
264 259 249 246 244 240 237 233 235 229 223 226 231 234 240 235 234 211 217 215 216 218 224 226 229 234 238 238 233 235 240 243 245 247 253 252 251 253 255 255 256 255 253 264
267 251 251 249 239 236 236 230 231 231 223 223 227 233 234 236 231 221 214 211 213 219 226 231 232 234 239 238 232 235 238 242 246 245 246 246 246 246 250 247 245 248 254 255
268 259 251 245 234 229 236 231 228 232 228 224 225 226 233 242 232 226 214 211 208 214 220 226 227 229 233 238 229 232 240 240 240 237 237 240 244 245 242 247 247 249 254 253
272 263 257 241 226 224 229 225 228 228 227 223 221 225 232 242 232 230 224 211 216 224 221 227 230 234 233 235 231 231 231 230 235 238 243 243 244 239 252 251 246 248 250 260
280 276 250 226 213 219 224 229 229 226 226 223 221 222 230 238 240 236 231 214 226 226 226 232 233 237 235 232 228 226 229 235 240 239 241 241 236 243 246 247 242 244 249 255
255 262 239 218 205 212 220 220 224 223 228 219 216 222 231 233 239 227 223 227 228 215 218 225 224 223 227 233 229 234 234 238 241 244 242 242 243 233 241 251 249 249 249 249
284 235 230 223 211 207 212 216 224 224 222 213 212 223 226 235 247 221 219 221 226 225 223 226 222 229 230 220 216 223 235 237 242 240 244 242 240 237 246 248 248 246 253 253
301 217 238 215 198 203 202 209 214 208 210 211 219 224 231 241 244 222 210 210 215 230 227 225 228 224 222 224 226 231 236 230 229 237 242 245 242 240 244 249 257 255 258 253
135 160 141 165 177 174 182 195 195 197 201 210 219 225 233 238 232 214 200 197 204 225 226 221 225 225 225 229 235 237 243 229 232 239 242 240 239 241 241 251 255 256 256 250
167 146 136 144 142 159 167 176 182 196 211 219 226 234 225 221 217 203 198 210 210 204 214 218 224 234 228 228 230 236 236 234 239 239 240 238 241 246 248 253 253 254 256 256
146 134 151 150 163 175 179 182 191 212 228 229 228 212 213 214 208 205 197 203 209 222 229 228 223 227 228 230 232 233 239 242 243 244 240 238 239 241 245 250 254 257 260 262
166 154 140 144 165 177 183 191 201 210 219 213 203 201 214 203 192 201 208 204 209 214 220 224 226 226 229 225 231 236 238 241 243 245 245 247 247 247 248 251 254 258 261 263
176 186 162 154 158 155 167 176 181 183 190 207 213 232 238 211 201 208 202 207 201 213 222 216 222 222 224 229 229 230 234 237 236 239 240 242 244 246 249 252 256 260 262 263
183 189 195 194 187 170 170 171 179 180 187 208 246 240 238 213 193 197 209 201 203 210 226 223 228 232 232 234 228 226 237 240 241 237 237 243 245 244 243 248 253 257 260 265
187 183 193 201 209 195 205 209 206 215 239 236 236 236 235 241 210 185 196 212 207 207 214 221 225 229 229 235 236 244 247 237 242 247 247 248 252 256 257 257 259 267 273 277
165 185 190 192 201 213 230 227 227 214 217 229 241 248 230 238 229 222 215 207 212 210 219 223 224 230 235 239 241 235 237 248 252 252 255 258 259 265 274 271 269 269 270 268
173 166 179 189 201 207 217 209 222 215 230 243 251 247 240 229 236 224 212 209 202 216 225 223 226 226 227 230 237 245 250 254 253 255 255 259 262 265 266 258 260 262 260 259
180 176 163 191 196 192 190 206 204 223 226 234 245 250 246 243 228 219 221 211 220 218 222 229 232 234 234 235 237 237 238 240 242 249 252 251 250 251 255 257 257 255 252 253
193 200 214 217 212 212 213 216 222 231 241 246 247 252 256 258 239 222 225 218 214 213 212 214 222 227 229 223 224 225 228 229 232 233 237 244 245 248 248 247 247 251 254 258
202 208 213 211 217 217 219 224 227 232 234 249 244 244 240 234 244 246 235 244 238 224 214 217 210 206 214 227 225 220 229 233 231 232 230 234 243 245 257 263 254 256 258 258
206 212 214 220 232 240 236 229 229 237 240 241 235 244 228 232 226 235 212 231 241 244 231 221 208 210 211 211 213 217 234 239 235 246 250 257 264 264 261 259 255 252 252 257
202 201 204 214 220 220 217 221 232 238 235 246 230 224 231 228 223 219 238 235 233 243 251 233 218 214 215 221 232 231 238 247 257 263 262 261 265 257 255 255 256 258 263 270
208 209 215 214 218 215 211 220 233 236 237 219 201 200 205 207 224 232 232 243 233 245 245 245 237 230 228 240 240 242 244 259 258 253 245 243 245 251 258 264 272 273 272 272
197 209 219 224 226 231 229 226 220 231 227 222 203 191 205 216 224 234 236 228 200 209 231 238 238 238 238 241 244 259 254 249 250 249 249 254 260 263 265 267 269 272 273 272
207 208 209 210 218 220 224 211 212 220 219 206 198 202 214 228 236 236 217 202 200 217 213 207 207 214 226 238 238 235 238 243 247 250 251 253 256 261 264 266 268 270 271 273
Height
5406 5407 5410 5414 5419 5425 5423 5430 5431 5452 5457 5454 5452 5456 5469 5482 5508 5522 5532 5539 5553 5566 5579 5590 5602 5615 5627 5635 5641 5648 5661 5663 5665 5670 5679 5686 5692 5696 5698 5694 5692 5695 5696 5692
5384 5385 5387 5393 5399 5402 5408 5408 5418 5426 5435 5432 5437 5452 5458 5472 5488 5508 5519 5528 5542 5556 5566 5576 5590 5600 5610 5618 5622 5634 5642 5641 5650 5655 5660 5665 5665 5677 5684 5686 5687 5683 5689 5684
5369 5369 5372 5376 5381 5385 5387 5394 5395 5401 5408 5421 5427 5442 5452 5465 5473 5497 5507 5518 5533 5543 5552 5563 5576 5586 5595 5605 5612 5622 5623 5629 5633 5638 5648 5656 5663 5670 5675 5676 5673 5676 5672 5683
5351 5352 5355 5359 5364 5369 5369 5370 5373 5384 5389 5400 5418 5429 5439 5448 5455 5477 5501 5506 5520 5534 5545 5555 5568 5578 5585 5592 5600 5605 5608 5618 5624 5630 5636 5640 5647 5652 5656 5655 5660 5660 5671 5673
5333 5333 5335 5340 5346 5353 5347 5349 5357 5369 5383 5394 5407 5417 5428 5442 5449 5463 5485 5493 5511 5527 5537 5548 5558 5566 5574 5581 5587 5592 5600 5607 5612 5617 5626 5629 5632 5637 5641 5645 5649 5651 5656 5665
5311 5308 5306 5311 5324 5333 5325 5334 5348 5363 5372 5380 5391 5403 5425 5433 5440 5453 5479 5499 5510 5512 5528 5539 5546 5552 5560 5569 5575 5582 5590 5597 5602 5607 5616 5617 5617 5624 5632 5637 5641 5647 5647 5661
5293 5287 5282 5285 5298 5313 5315 5325 5341 5351 5358 5370 5383 5403 5416 5424 5432 5449 5473 5489 5492 5513 5525 5530 5538 5543 5549 5558 5565 5571 5577 5585 5590 5595 5600 5600 5609 5616 5624 5625 5632 5636 5639 5643
5283 5281 5279 5281 5288 5302 5308 5319 5329 5342 5349 5365 5379 5394 5407 5416 5427 5434 5451 5468 5488 5503 5508 5516 5525 5533 5537 5543 5553 5561 5568 5574 5579 5583 5586 5593 5600 5606 5615 5616 5624 5627 5627 5629
5275 5275 5276 5276 5284 5293 5301 5316 5328 5340 5348 5359 5377 5389 5398 5404 5413 5425 5434 5458 5475 5484 5492 5503 5507 5515 5526 5533 5541 5550 5558 5565 5569 5572 5575 5580 5589 5595 5602 5606 5611 5616 5618 5620
5274 5272 5272 5271 5278 5288 5301 5314 5326 5337 5349 5362 5375 5383 5392 5401 5408 5414 5429 5447 5464 5469 5481 5491 5497 5504 5513 5519 5529 5540 5545 5551 5554 5561 5564 5572 5578 5583 5587 5591 5605 5604 5606 5608
5280 5277 5275 5276 5282 5292 5301 5314 5326 5338 5348 5360 5370 5376 5383 5387 5391 5400 5421 5439 5447 5459 5468 5480 5486 5492 5499 5509 5519 5527 5536 5541 5545 5550 5555 5562 5568 5569 5576 5583 5584 5586 5589 5593
5283 5283 5284 5286 5290 5297 5307 5318 5329 5339 5351 5358 5363 5368 5373 5377 5383 5393 5411 5424 5438 5453 5452 5469 5475 5482 5491 5501 5507 5515 5524 5531 5536 5543 5548 5553 5557 5560 5562 5565 5569 5572 5574 5578
5287 5288 5291 5295 5300 5308 5317 5325 5335 5343 5347 5352 5356 5361 5368 5372 5378 5386 5395 5409 5429 5436 5449 5464 5469 5476 5485 5489 5496 5505 5511 5519 5524 5530 5537 5541 5544 5548 5550 5554 5556 5558 5561 5563
5292 5294 5297 5302 5308 5314 5322 5329 5336 5341 5344 5346 5352 5357 5360 5368 5375 5382 5392 5402 5416 5426 5438 5447 5457 5467 5474 5480 5486 5494 5502 5507 5513 5517 5524 5526 5530 5533 5537 5542 5546 5548 5551 5553
5294 5298 5302 5307 5313 5318 5323 5330 5336 5339 5342 5345 5350 5352 5355 5359 5367 5375 5382 5397 5408 5419 5429 5434 5447 5456 5464 5470 5476 5484 5493 5500 5502 5508 5507 5509 5517 5521 5526 5530 5532 5535 5538 5541
5295 5299 5304 5309 5315 5319 5323 5327 5332 5336 5341 5347 5347 5351 5352 5354 5361 5370 5378 5386 5396 5406 5418 5425 5435 5444 5453 5458 5467 5480 5485 5489 5490 5494 5497 5502 5507 5510 5513 5516 5519 5522 5525 5528
5295 5300 5304 5309 5313 5319 5323 5328 5334 5337 5339 5346 5350 5350 5351 5352 5356 5365 5375 5381 5391 5398 5406 5414 5423 5433 5439 5446 5458 5470 5476 5477 5477 5483 5489 5494 5498 5500 5502 5505 5507 5510 5513 5516
5297 5300 5304 5308 5313 5319 5323 5326 5332 5334 5338 5341 5344 5350 5353 5352 5355 5362 5369 5376 5384 5392 5400 5409 5416 5424 5427 5435 5452 5456 5462 5465 5468 5472 5477 5483 5486 5489 5491 5494 5496 5498 5500 5502
5299 5301 5304 5308 5313 5319 5322 5324 5330 5333 5337 5338 5342 5346 5350 5352 5354 5360 5365 5372 5377 5386 5392 5400 5408 5413 5416 5435 5441 5446 5451 5455 5457 5460 5467 5471 5474 5476 5478 5480 5483 5484 5485 5487
5299 5302 5303 5308 5310 5316 5317 5322 5325 5330 5332 5335 5339 5344 5348 5351 5352 5357 5363 5366 5371 5377 5382 5390 5394 5402 5413 5423 5429 5436 5439 5441 5447 5452 5457 5459 5462 5464 5465 5468 5469 5471 5473 5474
5298 5301 5302 5306 5309 5313 5316 5320 5324 5327 5330 5333 5336 5339 5343 5346 5348 5353 5357 5361 5365 5370 5377 5381 5385 5396 5408 5415 5420 5425 5429 5433 5438 5442 5445 5449 5450 5452 5454 5457 5458 5460 5461 5462
5293 5298 5300 5302 5305 5309 5313 5317 5321 5324 5326 5329 5330 5333 5336 5340 5344 5347 5352 5356 5361 5365 5371 5375 5383 5393 5397 5404 5410 5416 5421 5424 5427 5431 5435 5437 5439 5441 5443 5445 5447 5449 5450 5451
5290 5293 5295 5298 5302 5305 5309 5314 5319 5321 5323 5324 5325 5327 5330 5335 5340 5345 5349 5352 5356 5361 5365 5372 5381 5387 5392 5397 5403 5410 5413 5415 5418 5422 5425 5426 5427 5429 5431 5432 5435 5438 5440 5437
5286 5289 5292 5295 5297 5299 5304 5311 5314 5316 5318 5319 5319 5322 5325 5331 5336 5340 5344 5348 5350 5354 5361 5369 5374 5379 5385 5390 5395 5399 5400 5404 5408 5411 5413 5414 5415 5419 5420 5421 5422 5424 5425 5425
5282 5286 5289 5291 5294 5298 5302 5306 5309 5311 5313 5316 5318 5319 5323 5327 5331 5335 5339 5341 5343 5350 5356 5362 5369 5373 5377 5382 5386 5389 5392 5396 5399 5401 5403 5404 5405 5406 5408 5408 5410 5412 5412 5412
5280 5283 5286 5289 5292 5295 5298 5301 5303 5306 5309 5312 5314 5316 5321 5326 5329 5333 5336 5338 5341 5345 5349 5354 5359 5365 5370 5375 5379 5381 5387 5392 5393 5393 5394 5395 5395 5396 5398 5399 5400 5400 5400 5400
5277 5280 5283 5286 5288 5290 5292 5295 5298 5300 5303 5306 5310 5314 5318 5323 5326 5329 5332 5334 5338 5342 5345 5349 5353 5356 5360 5365 5372 5379 5380 5382 5383 5384 5386 5387 5388 5389 5390 5391 5390 5389 5388 5387